Regional Weather Roundup
Issued by NWS

Home | Current Version | Previous Version | Text Only | Print | Product List | Glossary On
Versions: 1 2 3 4 5 6 7 8 9 10 11 12 13 14 15 16 17 18 19 20 21 22 23 24 25 26 27 28 29 30 31 32 33 34 35 36 37 38 39 40 41 42 43 44 45 46 47 48 49 50
000
ASUS43 KLSX 311207
RWRMO

WEATHER SUMMARY FOR MISSOURI
NATIONAL WEATHER SERVICE SPRINGFIELD MO
600 AM CST SAT JAN 31 2015

NOTE: "FAIR" INDICATES FEW OR NO CLOUDS BELOW 12,000 FEET WITH NO
       SIGNIFICANT WEATHER AND/OR OBSTRUCTIONS TO VISIBILITY.
       CURRENT SKY AND/OR WEATHER CONDITIONS ARE NOT AVAILABLE FOR
       CHILLICOTHE AND FARMINGTON.

MOZ001>031-035>038-043-044-053-054-311300-
...NORTHERN AND WESTERN MISSOURI...

CITY           SKY/WX    TMP DP  RH WIND       PRES   REMARKS
KANSAS CTY INT LGT RAIN  34  32  92 S5        30.25F WCI  30
6HR MIN TEMP:  32; 6HR MAX TEMP:  36; 6HR PCP:  0.07;

KANSAS C DTWN  LGT RAIN  37  32  82 CALM      30.26F
6HR MIN TEMP:  36; 6HR MAX TEMP:  39; 6HR PCP: TRACE;

LEE`S SUMMIT   LGT RAIN  34  30  85 CALM      30.26F
6HR MIN TEMP:  34; 6HR MAX TEMP:  37; 6HR PCP:  0.02;

ST JOSEPH      LGT RAIN  33  32  96 S5        30.27R FOG     WCI  29
6HR MIN TEMP:  30; 6HR MAX TEMP:  35; 6HR PCP:  0.02;

CHILLICOTHE      N/A     33  25  72 CALM      30.28S
6HR MIN TEMP:  29; 6HR MAX TEMP:  33;

KIRKSVILLE     CLOUDY    29  21  72 SW6       30.27S WCI  23
6HR MIN TEMP:  27; 6HR MAX TEMP:  30;


$$
MOZ066>068-077>081-088>096-101>105-311300-
...SOUTHWEST MISSOURI...

CITY           SKY/WX    TMP DP  RH WIND       PRES   REMARKS
SPRINGFIELD    CLOUDY    39  20  46 S9        30.28S
6HR MIN TEMP:  37; 6HR MAX TEMP:  40;

JOPLIN         CLOUDY    40  29  64 NE8       30.23F
6HR MIN TEMP:  38; 6HR MAX TEMP:  41; 6HR PCP: TRACE;


$$
MOZ032>034-039>042-045>050-055>058-069>072-311300-
...CENTRAL MISSOURI...

CITY           SKY/WX    TMP DP  RH WIND       PRES   REMARKS
COLUMBIA       CLOUDY    33  21  61 S6        30.29S WCI  28
6HR MIN TEMP:  29; 6HR MAX TEMP:  33;

JEFFERSON CITY CLOUDY    32  22  66 E5        30.32S WCI  27
6HR MIN TEMP:  27; 6HR MAX TEMP:  33;

ROLLA          CLOUDY    35  22  58 S8        30.28S WCI  29
6HR MIN TEMP:  31; 6HR MAX TEMP:  36;

SEDALIA        CLOUDY    36  23  59 S5        30.29S
6HR MIN TEMP:  31; 6HR MAX TEMP:  37;

WHITEMAN AFB   LGT RAIN  34  27  75 CALM      30.27F
WARRENSBURG    LGT RAIN  32  28  86 CALM      30.28S
OSAGE BEACH    CLOUDY    36  19  51 SE3       30.29F

$$
MOZ051-052-059>065-311300-
...EAST CENTRAL MISSOURI...

CITY           SKY/WX    TMP DP  RH WIND       PRES   REMARKS
ST LOUIS INTL  MOCLDY    32  20  61 S3        30.33S
6HR MIN TEMP:  32; 6HR MAX TEMP:  34;

SPIRIT OF STL  MOCLDY    26  22  84 CALM      30.32F
6HR MIN TEMP:  24; 6HR MAX TEMP:  28;

ST CHARLES     PTCLDY    25  22  88 E3        30.33S
6HR MIN TEMP:  24; 6HR MAX TEMP:  27;


$$
MOZ072>076-082>087-097>100-106>115-311300-
...SOUTH CENTRAL AND SOUTHEAST MISSOURI...

CITY           SKY/WX    TMP DP  RH WIND       PRES   REMARKS
CAPE GIRARDEAU MOCLDY    31  25  78 E3        30.36F
6HR MIN TEMP:  28; 6HR MAX TEMP:  32;

FARMINGTON     CLOUDY    30  21  69 S8        30.35S WCI  23
6HR MIN TEMP:  28; 6HR MAX TEMP:  30;

POPLAR BLUFF   CLOUDY    31  26  82 CALM      30.36F
6HR MIN TEMP:  29; 6HR MAX TEMP:  31;

WEST PLAINS    CLOUDY    34  23  64 CALM      30.32S
6HR MIN TEMP:  33; 6HR MAX TEMP:  34;


$$



USA.gov is the U.S. government's official web portal to all federal, state and local government web resources and services.